Content
SEND FEEDBACK

Daily
Averages
Monthly
Summary
United States of America

KANSAS CITY - UNIVERSITY OF MISSOURI, MISSOURI


Home > North America > United States > Missouri
Elevation: 900 feet     Latitude: 39 02N     Longitude: 094 35W

WEATHER
 
SELECT A DAY
Number of Records: 192,722;   Date Range: 1/1/95 - 10/24/14
 
SHARE

PRINT THIS DATA

[ ← Previous Day ]
WEATHER ALMANAC - JANUARY 31, 2013
[ Next Day → ]
[ °C ]   °F
Weather ElementAverageHighLow
Temperature18.2 °F25 °F (3:54 am)10.9 °F (8:54 pm)
Dewpoint6 °F17.6 °F (5:54 am)-2 °F (7:54 pm)
Humidity59.2 %74 % (5:54 am)49 % (2:54 pm)
Barometer30.24 in30.54 in (10:54 pm)29.98 in (5:54 am)
Wind Speed11.1 mph20.7 mph (2:54 pm)
Wind Gust28.8 mph (12:54 pm)
Weather ElementAverage
Visibility10 mi
Wind DirectionWNW (299.5 °)

Weather ElementTotal
Precipitation---
Heating Degree Days47.1 (Base 65)
Averaged from 22 records on January 31, 2013
WEATHER CONDITIONS BREAKOUT
WIND DIRECTION BREAKOUT
WEATHER BY HOUR - JANUARY 31, 2013
[ °C ]   °F
Local TimeTemperatureDewpointHumidityBarometerVisibilityWind DirectionWind SpeedGust SpeedPrecipitationEventsConditions
1:54 AM24.1 °F15.1 °F69 %29.99 in10.0 miSW (220°)6.9 mphOvercast
2:54 AM24.1 °F15.1 °F69 %30.00 in10.0 miWSW (240°)6.9 mphOvercast
3:54 AM25.0 °F16.0 °F69 %29.99 in10.0 miSW (230°)6.9 mphOvercast
4:54 AM25.0 °F17.1 °F72 %29.99 in10.0 miWSW (250°)5.8 mphOvercast
5:54 AM24.8 °F17.6 °F74 %29.98 in10.0 miNNW (340°)5.8 mphMostly Cloudy
6:54 AM24.1 °F15.1 °F69 %30.05 in10.0 miNNW (330°)9.2 mphOvercast
7:54 AM21.9 °F10.9 °F63 %30.09 in10.0 miNNW (330°)11.5 mphScattered Clouds
8:54 AM21.9 °F8.1 °F55 %30.12 in10.0 miNNW (340°)13.8 mph24.2 mphPartly Cloudy
9:54 AM21.0 °F5.0 °F50 %30.16 in10.0 miNW (320°)13.8 mphOvercast
10:54 AM19.9 °F6.1 °F55 %30.20 in10.0 miWNW (290°)15.0 mphOvercast
11:54 AM19.9 °F6.1 °F55 %30.24 in10.0 miNW (310°)11.5 mphOvercast
12:54 PM21.0 °F5.0 °F50 %30.25 in10.0 miNW (310°)19.6 mph28.8 mph0.00 inSnowLight Snow
2:54 PM16.0 °F0.0 °F49 %30.30 in9.0 miNW (320°)20.7 mph27.6 mph0.00 inClear
3:54 PM16.0 °F1.0 °F52 %30.34 in10.0 miNW (320°)12.7 mph21.9 mph0.00 inPartly Cloudy
4:54 PM15.1 °F1.0 °F54 %30.37 in10.0 miNW (320°)16.1 mph21.9 mph0.00 inClear
5:54 PM12.2 °F-0.4 °F57 %30.35 in10.0 miNW (320°)17.3 mph26.5 mphClear
6:54 PM12.9 °F-0.9 °F54 %30.43 in10.0 miNNW (330°)13.8 mph18.4 mphClear
7:54 PM12.0 °F-2.0 °F53 %30.45 in10.0 miNNW (330°)12.7 mph19.6 mphClear
8:54 PM10.9 °F-2.0 °F56 %30.48 in10.0 miWNW (300°)6.9 mphClear
9:54 PM10.9 °F-0.9 °F59 %30.52 in10.0 miWSW (250°)5.8 mphClear
10:54 PM10.9 °F-0.9 °F59 %30.54 in10.0 miWest (270°)5.8 mphClear
11:54 PM10.9 °F-0.9 °F59 %30.52 in10.0 miNW (320°)5.8 mphClear
Hourly data recorded from KMKC, located miles away from Kansas City - University of Missouri, Missouri







STORIES FROM OUR PARTNERS